Home   Weather   Qadian   Past weeks

Flag for India Past Weather in Qadian, Punjab, India — Yesterday and Last 2 Weeks

Now
59 °F

Fog.


Feels Like: 58 °F
Forecast: 57 / 62 °F
Wind: 6 mph from Northwest

Location: Amritsar Airport

Current Time: Jan 24, 2017 at 1:03:32 pm

Latest Report: Jan 24, 2017 at 11:00 am


Visibility: 1 mi

Pressure: 30.18 "Hg

Humidity: 100%

Dew Point: 59 °F

Location of QadianLocation

Past Weather in Qadian — Graph

°F

Qadian Temperature Yesterday

Maximum temperature yesterday: 68 °F (at 1:30 pm)
Minimum temperature yesterday: 39 °F (at 7:30 am)
Average temperature yesterday: 53 °F

High & Low Weather Summary for the Past Weeks

 TemperatureHumidityPressure
High70 °F (Jan 22, 2:00 pm)100% (Jan 9, 10:30 pm)30.36 "Hg (Jan 9, 10:30 pm)
Low34 °F (Jan 11, 7:00 am)29% (Jan 22, 2:00 pm)29.98 "Hg (Jan 10, 4:30 am)
Average50 °F87%30.11 "Hg
* Reported Jan 9 10:30 am — Jan 24 11:00 am, Qadian, Weather by CustomWeather, © 2017

Note: Actual official high and low records may vary slightly from our data, if they occured in-between our weather recording intervals... More about our weather records

Advertising

Qadian Weather History for the Previous 24 Hours

Scroll right to see more
 ConditionsComfort  
Time TempWeatherWind HumidityBarometerVisibility
11:00 am
Tue, Jan 24
59 °FFog.6 mph100%30.18 "Hg1 mi
10:00 am57 °FFog.1 mph100%30.15 "Hg1 mi
9:30 am55 °FFog.3 mph100%30.15 "Hg1 mi
9:00 am54 °FFog.No wind100%30.12 "Hg1 mi
8:30 am52 °FFog.No wind100%30.12 "Hg1 mi
8:00 am52 °FFog.No wind100%30.09 "Hg1 mi
7:30 am50 °FFog.2 mph100%30.09 "Hg1 mi
7:00 am50 °FFog.3 mph100%30.07 "Hg1 mi
5:30 am50 °FFog.No wind100%30.07 "Hg1 mi
3:00 am54 °FFog.5 mph100%30.09 "Hg1 mi
2:30 am52 °FFog.5 mph100%30.09 "Hg1 mi
1:00 am50 °FFog.No wind100%30.09 "Hg1 mi
12:30 am52 °FFog.No wind100%30.09 "Hg1 mi
12:00 am52 °FFog.No wind100%30.09 "Hg1 mi
11:30 pm
Mon, Jan 23
54 °FFog.No wind100%30.12 "Hg2 mi
11:00 pm52 °FFog.No wind100%30.09 "Hg2 mi
10:00 pm54 °FFog.No wind100%30.12 "Hg2 mi
9:30 pm54 °FFog.No wind100%30.12 "Hg2 mi
9:00 pm55 °FFog.No wind100%30.12 "Hg2 mi
8:30 pm55 °FFog.No wind94%30.12 "Hg2 mi
8:00 pm57 °FFog.No wind88%30.12 "Hg2 mi
7:30 pm59 °FMostly cloudy.No wind77%30.12 "Hg2 mi
7:00 pm59 °FMostly cloudy.No wind77%30.12 "Hg2 mi
6:30 pm61 °FMostly cloudy.2 mph68%30.12 "Hg2 mi
6:00 pm61 °FMore clouds than sun.1 mph68%30.09 "Hg2 mi
5:30 pm63 °FMore clouds than sun.No wind68%30.09 "Hg2 mi
5:00 pm64 °FMore clouds than sun.5 mph60%30.09 "Hg2 mi
3:00 pm68 °FPartly sunny.2 mph35%30.12 "Hg2 mi
2:30 pm68 °FPartly sunny.5 mph40%30.12 "Hg2 mi
1:30 pm68 °FScattered clouds.5 mph46%30.15 "Hg2 mi
1:00 pm66 °FPartly sunny.No wind64%30.15 "Hg2 mi
Weather by CustomWeather, © 2017

See weather overviewHow to use our weather pages